This is the latest recevied weather packets stored in our database for station/object NB9X. If no packets are shown the sender has not sent any weather packets the latest 10 day(s).
| Time | Temp. | Humidity | Pressure | Rain* | Wind** | Luminosity | Snow |
|---|---|---|---|---|---|---|---|
| 1778169309 | 30° C | 100% | 1015.6 hPa | 0 mm | - | - | - |
| 1778169186 | 29.44° C | 100% | 1015.6 hPa | 0 mm | - | - | - |
| 1778168886 | 30° C | 100% | 1015.6 hPa | 0 mm | - | - | - |
| 1778168586 | 29.44° C | 100% | 1015.7 hPa | 0 mm | - | - | - |
| 1778168286 | 28.89° C | 100% | 1015.7 hPa | 0 mm | - | - | - |
| 1778168044 | 29.44° C | 100% | 1015.8 hPa | 0 mm | - | - | - |
| 1778167986 | 28.89° C | 100% | 1015.8 hPa | 0 mm | - | - | - |
| 1778167686 | 29.44° C | 100% | 1015.8 hPa | 0 mm | - | - | - |
| 1778167386 | 28.89° C | 100% | 1015.8 hPa | 0 mm | - | - | - |
| 1778167086 | 28.33° C | 100% | 1015.9 hPa | 0 mm | - | - | - |
| 1778166786 | 28.33° C | 100% | 1015.9 hPa | 0 mm | - | - | - |
| 1778166599 | 27.78° C | 100% | 1015.8 hPa | 0 mm | - | - | - |
| 1778166486 | 27.78° C | 100% | 1015.8 hPa | 0 mm | - | - | - |
| 1778166186 | 28.33° C | 100% | 1015.8 hPa | 0 mm | - | - | - |
| 1778165886 | 28.33° C | 100% | 1015.7 hPa | 0 mm | - | - | - |
| 1778165586 | 28.33° C | 100% | 1015.7 hPa | 0 mm | - | - | - |
| 1778165286 | 28.33° C | 100% | 1015.6 hPa | 0 mm | - | - | - |
| 1778165098 | 27.78° C | 100% | 1015.5 hPa | 0 mm | - | - | - |
| 1778164986 | 27.78° C | 100% | 1015.5 hPa | 0 mm | - | - | - |
| 1778164745 | 27.78° C | 100% | 1015.6 hPa | 0 mm | - | - | - |
| 1778164686 | 27.78° C | 100% | 1015.6 hPa | 0 mm | - | - | - |
| 1778164592 | 27.22° C | 100% | 1015.4 hPa | 0 mm | - | - | - |
| 1778164386 | 27.78° C | 100% | 1015.6 hPa | 0 mm | - | - | - |
| 1778164086 | 27.78° C | 100% | 1015.5 hPa | 0 mm | - | - | - |
| 1778163787 | 27.22° C | 100% | 1015.4 hPa | 0 mm | - | - | - |
* Rain latest hour (hover to see other rain measurements)
** Current wind speed in m/s (hover to see current wind gust speed)